Powrót do katalogu

WILDFIRE 5

AktywnyNaukaPO
NORAD 57769·PAYLOAD·🇺🇸 United States

Wystrzelony Sep 2, 2023 z Vandenberg Space Force Base

Loading…

Następne Przeloty (najbliższe 24 godziny)

TLE

ŚwieżeSource: Space-Track

Epoka: Sep 14, 2026, 02:38 UTC

1 57769U 23133N   26257.10983334  .00000098  00000-0  75883-4 0  9991
2 57769  81.0004 282.4532 0007325 122.1669 238.0199 13.85752168153343

Śledź WILDFIRE 5 w czasie rzeczywistym z AllMySat

Download on the App Store